When you browse on this site, cookies collect data to enhance your experience and personalize the content and advertising you see.
Visit our Privacy Policy to learn more. By continuing to use the site, you agree to this use of cookies and data.
  • In Hungary
  • List of Countries
  • For 7 days
  • Water Temperature
  • Weather Map
  • News
  • Weather Widgets
  • user-avatar
    Login

    Hourly Weather Shuvakish

    Today, 18 January, Saturday

    Time Temperature Precipitation Wind Pressure Humidity
    00:00 -10°C° 0 mm 1 mps 739 mmHg 95%
    01:00 -10°C° 0 mm 1 mps 739 mmHg 96%
    02:00 -11°C° 0 mm 1 mps 739 mmHg 95%
    03:00 -14°C° 0 mm 2 mps 739 mmHg 94%
    04:00 -13°C° 0 mm 2 mps 739 mmHg 92%
    05:00 -10°C° 0 mm 2 mps 738 mmHg 91%
    06:00 -9°C° 0 mm 2 mps 738 mmHg 90%
    07:00 -9°C° 0 mm 3 mps 738 mmHg 90%
    08:00 -8°C° 0 mm 3 mps 737 mmHg 89%
    09:00 -9°C° 0 mm 4 mps 737 mmHg 89%
    10:00 -8°C° 0 mm 4 mps 737 mmHg 88%
    11:00 -7°C° 0 mm 5 mps 736 mmHg 86%
    12:00 -6°C° 0 mm 5 mps 735 mmHg 84%
    13:00 -5°C° 0 mm 6 mps 735 mmHg 82%
    14:00 -6°C° 0 mm 5 mps 735 mmHg 84%
    15:00 -6°C° 0 mm 5 mps 735 mmHg 86%
    16:00 -6°C° 0 mm 5 mps 735 mmHg 88%
    17:00 -6°C° 0 mm 5 mps 735 mmHg 88%
    18:00 -5°C° 0 mm 4 mps 735 mmHg 89%
    19:00 -5°C° 0 mm 4 mps 735 mmHg 89%
    20:00 -5°C° 0 mm 4 mps 736 mmHg 89%
    21:00 -7°C° 0 mm 4 mps 736 mmHg 89%
    22:00 -6°C° 0 mm 3 mps 737 mmHg 89%
    23:00 -6°C° 0 mm 3 mps 737 mmHg 89%

    Tomorrow, 19 January, Sunday

    Time Temperature Precipitation Wind Pressure Humidity
    00:00 -7°C° 0 mm 3 mps 738 mmHg 89%
    01:00 -6°C° 0 mm 2 mps 738 mmHg 89%
    02:00 -7°C° 0 mm 2 mps 738 mmHg 91%
    03:00 -8°C° 0 mm 2 mps 739 mmHg 92%
    04:00 -8°C° 0 mm 1 mps 739 mmHg 94%
    05:00 -9°C° 0 mm 1 mps 739 mmHg 94%
    06:00 -10°C° 0 mm 1 mps 739 mmHg 94%
    07:00 -13°C° 0 mm 2 mps 739 mmHg 94%
    08:00 -13°C° 0 mm 2 mps 740 mmHg 90%
    09:00 -12°C° 0 mm 2 mps 740 mmHg 86%
    10:00 -12°C° 0 mm 2 mps 740 mmHg 82%
    11:00 -10°C° 0 mm 2 mps 740 mmHg 81%
    12:00 -10°C° 0 mm 2 mps 740 mmHg 80%
    13:00 -9°C° 0 mm 2 mps 740 mmHg 80%
    14:00 -9°C° 0 mm 2 mps 740 mmHg 83%
    15:00 -8°C° 0 mm 1 mps 740 mmHg 87%
    16:00 -8°C° 0 mm 1 mps 740 mmHg 90%
    17:00 -8°C° 0.1 mm 1 mps 739 mmHg 92%
    18:00 -8°C° 0.1 mm 1 mps 739 mmHg 94%
    19:00 -7°C° 0.1 mm 0 mps 739 mmHg 96%
    20:00 -7°C° 0.3 mm 1 mps 739 mmHg 95%
    21:00 -7°C° 0.3 mm 1 mps 739 mmHg 95%
    22:00 -8°C° 0.3 mm 2 mps 738 mmHg 95%
    23:00 -8°C° 0.3 mm 2 mps 738 mmHg 95%

    Day after tomorrow, 20 January, Monday

    Time Temperature Precipitation Wind Pressure Humidity
    00:00 -8°C° 0.3 mm 2 mps 737 mmHg 95%
    01:00 -8°C° 0.3 mm 2 mps 737 mmHg 95%
    02:00 -8°C° 0.4 mm 2 mps 736 mmHg 95%
    03:00 -7°C° 0.4 mm 2 mps 736 mmHg 95%
    04:00 -7°C° 0.4 mm 2 mps 736 mmHg 95%
    05:00 -6°C° 0.5 mm 1 mps 735 mmHg 95%
    06:00 -6°C° 0.5 mm 1 mps 734 mmHg 95%
    07:00 -6°C° 0.5 mm 1 mps 734 mmHg 96%
    08:00 -6°C° 0.5 mm 1 mps 734 mmHg 95%
    09:00 -7°C° 0.5 mm 1 mps 734 mmHg 95%
    10:00 -7°C° 0.5 mm 1 mps 734 mmHg 94%
    11:00 -8°C° 0.3 mm 2 mps 733 mmHg 94%
    12:00 -9°C° 0.3 mm 2 mps 733 mmHg 93%
    13:00 -9°C° 0.3 mm 2 mps 733 mmHg 92%
    14:00 -10°C° 0.1 mm 2 mps 733 mmHg 93%
    15:00 -12°C° 0.1 mm 2 mps 734 mmHg 94%
    16:00 -12°C° 0.1 mm 2 mps 734 mmHg 95%
    17:00 -13°C° 0 mm 2 mps 734 mmHg 95%
    18:00 -14°C° 0 mm 2 mps 734 mmHg 96%
    19:00 -13°C° 0 mm 1 mps 734 mmHg 96%
    20:00 -13°C° 0 mm 1 mps 734 mmHg 97%
    21:00 -14°C° 0 mm 1 mps 735 mmHg 97%
    22:00 -15°C° 0 mm 1 mps 735 mmHg 97%
    23:00 -15°C° 0 mm 1 mps 735 mmHg 98%

    21 January, Tuesday

    Time Temperature Precipitation Wind Pressure Humidity
    00:00 -16°C° 0 mm 1 mps 735 mmHg 98%
    01:00 -16°C° 0 mm 1 mps 735 mmHg 98%
    02:00 -17°C° 0 mm 1 mps 735 mmHg 98%
    03:00 -17°C° 0 mm 1 mps 735 mmHg 98%
    04:00 -17°C° 0 mm 1 mps 735 mmHg 98%
    05:00 -17°C° 0 mm 1 mps 735 mmHg 98%
    06:00 -17°C° 0 mm 1 mps 735 mmHg 98%
    07:00 -18°C° 0 mm 1 mps 734 mmHg 98%
    08:00 -17°C° 0 mm 1 mps 734 mmHg 97%
    09:00 -18°C° 0 mm 2 mps 735 mmHg 96%
    10:00 -18°C° 0 mm 2 mps 735 mmHg 95%
    11:00 -17°C° 0 mm 2 mps 734 mmHg 93%
    12:00 -16°C° 0 mm 2 mps 733 mmHg 92%
    13:00 -16°C° 0 mm 3 mps 733 mmHg 90%
    14:00 -16°C° 0 mm 3 mps 733 mmHg 91%
    15:00 -17°C° 0 mm 3 mps 732 mmHg 93%
    16:00 -17°C° 0 mm 3 mps 732 mmHg 94%
    17:00 -18°C° 0 mm 3 mps 731 mmHg 94%
    18:00 -18°C° 0 mm 3 mps 731 mmHg 95%
    19:00 -18°C° 0 mm 3 mps 730 mmHg 95%
    20:00 -18°C° 0 mm 3 mps 729 mmHg 95%
    21:00 -17°C° 0 mm 3 mps 729 mmHg 95%
    22:00 -17°C° 0 mm 3 mps 728 mmHg 95%
    23:00 -17°C° 0 mm 3 mps 727 mmHg 95%

    22 January, Wednesday

    Time Temperature Precipitation Wind Pressure Humidity
    00:00 -16°C° 0 mm 3 mps 726 mmHg 95%
    01:00 -16°C° 0 mm 3 mps 725 mmHg 95%
    02:00 -15°C° 0 mm 3 mps 725 mmHg 94%
    03:00 -15°C° 0 mm 4 mps 724 mmHg 93%
    04:00 -15°C° 0 mm 4 mps 723 mmHg 92%
    05:00 -14°C° 0 mm 4 mps 722 mmHg 91%
    06:00 -12°C° 0 mm 4 mps 721 mmHg 89%
    07:00 -11°C° 0 mm 4 mps 720 mmHg 88%
    08:00 -11°C° 0.1 mm 4 mps 719 mmHg 88%
    09:00 -10°C° 0.1 mm 4 mps 719 mmHg 88%
    10:00 -10°C° 0.1 mm 5 mps 718 mmHg 88%
    11:00 -10°C° 0.2 mm 5 mps 717 mmHg 88%
    12:00 -8°C° 0.2 mm 5 mps 717 mmHg 87%
    13:00 -8°C° 0.2 mm 4 mps 716 mmHg 86%
    14:00 -8°C° 0 mm 4 mps 716 mmHg 87%
    15:00 -7°C° 0 mm 3 mps 715 mmHg 88%
    16:00 -7°C° 0 mm 3 mps 715 mmHg 89%
    17:00 -8°C° 0 mm 3 mps 714 mmHg 90%
    18:00 -8°C° 0 mm 3 mps 714 mmHg 91%
    19:00 -8°C° 0 mm 2 mps 714 mmHg 92%
    20:00 -7°C° 0.1 mm 2 mps 713 mmHg 93%
    21:00 -8°C° 0.1 mm 3 mps 713 mmHg 94%
    22:00 -7°C° 0.1 mm 3 mps 712 mmHg 95%
    23:00 -7°C° 0.3 mm 3 mps 712 mmHg 95%

    23 January, Thursday

    Time Temperature Precipitation Wind Pressure Humidity
    00:00 -7°C° 0.3 mm 3 mps 711 mmHg 95%
    01:00 -7°C° 0.3 mm 3 mps 710 mmHg 95%
    02:00 -7°C° 0.4 mm 3 mps 709 mmHg 95%
    03:00 -7°C° 0.4 mm 3 mps 709 mmHg 94%
    04:00 -8°C° 0.4 mm 4 mps 708 mmHg 94%
    05:00 -8°C° 0.5 mm 4 mps 707 mmHg 94%
    06:00 -7°C° 0.5 mm 4 mps 706 mmHg 93%
    07:00 -7°C° 0.5 mm 4 mps 706 mmHg 93%
    08:00 -8°C° 0 mm 4 mps 706 mmHg 91%
    09:00 -7°C° 0 mm 3 mps 705 mmHg 90%
    10:00 -7°C° 0 mm 2 mps 705 mmHg 88%
    11:00 -8°C° 0.3 mm 4 mps 706 mmHg 89%
    12:00 -8°C° 0.3 mm 5 mps 707 mmHg 90%
    13:00 -8°C° 0.3 mm 7 mps 708 mmHg 91%
    14:00 -9°C° 0.2 mm 7 mps 709 mmHg 88%
    15:00 -11°C° 0.2 mm 7 mps 711 mmHg 85%
    16:00 -12°C° 0.2 mm 7 mps 712 mmHg 82%
    17:00 -12°C° 0 mm 6 mps 713 mmHg 84%
    18:00 -14°C° 0 mm 6 mps 714 mmHg 86%
    19:00 -13°C° 0 mm 5 mps 715 mmHg 87%
    20:00 -14°C° 0 mm 4 mps 716 mmHg 88%
    21:00 -15°C° 0 mm 4 mps 716 mmHg 90%
    22:00 -15°C° 0 mm 3 mps 717 mmHg 91%
    23:00 -15°C° 0 mm 3 mps 718 mmHg 91%
    Show more